Orbital Elements at Epoch 2459000.5 (2020-May-31.0) TDB
Reference: JPL 23 (heliocentric ecliptic J2000)
Element | Value | Uncertainty (1-sigma) | Units |
e | .145340057260571 | 3.6293e-08 | |
a | 2.293523589988332 | 7.8779e-09 | au |
q | 1.960182740090958 | 8.3156e-08 | au |
i | 6.197200497707046 | 3.9078e-06 | deg |
node | 286.7926500114168 | 3.5016e-05 | deg |
peri | 81.00771608993693 | 3.7489e-05 | deg |
M | 188.4583677067231 | 1.367e-05 | deg |
tp | 2459605.033373829922 (2022-Jan-25.53337383) | 4.8955e-05 | TDB |
period | 1268.683360822266 3.47 | 6.5366e-06 1.79e-08 | d yr |
n | .2837587463641636 | 1.462e-09 | deg/d |
Q | 2.626864439885707 | 9.0229e-09 | au |
|
| | Orbit Determination Parameters
Additional Information
|